T4 EFRO-EFRO

Flight info

Callsign T4
Flight time N/A
Altitude 6000
Route TEMMO DCT 661720N0242601E DCT TEMMO TC
Aircraft PC12/L-SDFGRWY/S

Departure

Time 2026-04-28 19:57
Airport Rovaniemi Airport (EFRO)

Arrival

Time N/A
Airport Rovaniemi Airport (EFRO)
Time Latitude Longitude Altitude Speed Heading
2026-04-28 19:49 66.56847 25.82904 641 ft 0 kts 307°
2026-04-28 19:54 66.56837 25.82854 641 ft 10 kts 197°
2026-04-28 19:54 66.56736 25.82788 638 ft 19 kts 205°
2026-04-28 19:55 66.56612 25.82572 633 ft 25 kts 216°
2026-04-28 19:55 66.56465 25.82301 627 ft 24 kts 214°
2026-04-28 19:55 66.56327 25.82460 619 ft 28 kts 123°
2026-04-28 19:55 66.56316 25.82720 619 ft 0 kts 37°
2026-04-28 19:56 66.56358 25.82798 620 ft 27 kts 36°
2026-04-28 19:56 66.56667 25.83321 619 ft 80 kts 38°
2026-04-28 19:56 66.57170 25.84363 774 ft 104 kts 38°
2026-04-28 19:57 66.57755 25.85641 1121 ft 118 kts 37°
2026-04-28 19:57 66.58440 25.85199 1322 ft 152 kts 284°
2026-04-28 19:57 66.57585 25.83028 1166 ft 194 kts 214°
2026-04-28 19:57 66.56562 25.81295 1135 ft 168 kts 221°
2026-04-28 19:58 66.55693 25.79522 933 ft 158 kts 227°
2026-04-28 19:58 66.54854 25.78250 937 ft 134 kts 156°
2026-04-28 19:58 66.54965 25.79956 846 ft 110 kts 46°
2026-04-28 19:58 66.55494 25.81157 654 ft 97 kts 37°
2026-04-28 19:59 66.55988 25.82100 640 ft 78 kts 37°
2026-04-28 19:59 66.56408 25.82910 755 ft 83 kts 36°
2026-04-28 19:59 66.56948 25.83967 917 ft 114 kts 38°
2026-04-28 19:59 66.57574 25.85340 1267 ft 120 kts 39°
2026-04-28 20:00 66.58299 25.86029 1777 ft 109 kts 346°
2026-04-28 20:00 66.58476 25.84163 1868 ft 164 kts 235°
2026-04-28 20:00 66.57347 25.82845 1896 ft 185 kts 214°
2026-04-28 20:00 66.56425 25.80773 2349 ft 171 kts 238°
2026-04-28 20:01 66.56146 25.78218 2782 ft 150 kts 286°
2026-04-28 20:01 66.56324 25.75606 3033 ft 157 kts 289°
2026-04-28 20:01 66.56491 25.72946 3272 ft 166 kts 286°
2026-04-28 20:01 66.56621 25.69883 3286 ft 186 kts 282°
2026-04-28 20:02 66.56724 25.66501 3283 ft 200 kts 281°
2026-04-28 20:02 66.56831 25.62950 3325 ft 205 kts 281°
2026-04-28 20:02 66.56934 25.59524 3854 ft 189 kts 281°
2026-04-28 20:02 66.57033 25.56347 4391 ft 177 kts 282°
2026-04-28 20:03 66.57129 25.53348 4930 ft 168 kts 282°
2026-04-28 20:03 66.57219 25.50489 5460 ft 160 kts 282°
2026-04-28 20:03 66.57304 25.47764 5994 ft 152 kts 283°
2026-04-28 20:03 66.57391 25.45097 6283 ft 162 kts 283°
2026-04-28 20:04 66.57700 25.42289 6302 ft 172 kts 310°
2026-04-28 20:04 66.58648 25.40436 6303 ft 179 kts 344°
2026-04-28 20:04 66.59894 25.40481 6299 ft 187 kts 19°
2026-04-28 20:04 66.60879 25.42673 6300 ft 201 kts 58°
2026-04-28 20:05 66.61097 25.46226 6295 ft 214 kts 86°
2026-04-28 20:05 66.60951 25.49951 6291 ft 219 kts 91°
2026-04-28 20:05 66.60771 25.53769 6289 ft 220 kts 90°
2026-04-28 20:05 66.60629 25.57617 6291 ft 222 kts 89°
2026-04-28 20:06 66.60499 25.61490 6278 ft 222 kts 89°
2026-04-28 20:06 66.60363 25.65364 6282 ft 223 kts 90°
2026-04-28 20:06 66.60152 25.69221 6276 ft 226 kts 101°
2026-04-28 20:06 66.59216 25.72452 6268 ft 240 kts 141°
2026-04-28 20:07 66.57605 25.73549 6280 ft 247 kts 183°
2026-04-28 20:07 66.56520 25.72752 6264 ft 246 kts 211°
2026-04-28 20:07 66.55260 25.68351 6265 ft 232 kts 266°
2026-04-28 20:07 66.55532 25.64557 6277 ft 218 kts 301°
2026-04-28 20:08 66.56236 25.61256 6277 ft 211 kts 302°
2026-04-28 20:08 66.56820 25.57924 6272 ft 207 kts 294°
2026-04-28 20:08 66.57108 25.54409 6268 ft 205 kts 282°
2026-04-28 20:08 66.57213 25.50863 6277 ft 202 kts 279°
2026-04-28 20:09 66.57308 25.47360 6280 ft 199 kts 281°
2026-04-28 20:09 66.57448 25.43944 6284 ft 193 kts 287°
2026-04-28 20:09 66.58087 25.41227 6283 ft 178 kts 326°
2026-04-28 20:09 66.59200 25.40198 6293 ft 171 kts 360°
2026-04-28 20:10 66.60313 25.41061 6295 ft 171 kts 33°
2026-04-28 20:10 66.61002 25.43472 6307 ft 179 kts 67°
2026-04-28 20:10 66.61052 25.46663 6297 ft 186 kts 88°
2026-04-28 20:10 66.60922 25.49912 6292 ft 187 kts 89°
2026-04-28 20:11 66.60794 25.53158 6289 ft 186 kts 89°
2026-04-28 20:11 66.60679 25.56399 6286 ft 186 kts 88°
2026-04-28 20:11 66.60565 25.59651 6280 ft 186 kts 88°
2026-04-28 20:11 66.60450 25.62883 6283 ft 185 kts 88°
2026-04-28 20:12 66.60334 25.66111 6281 ft 185 kts 88°
2026-04-28 20:12 66.60167 25.69321 6279 ft 188 kts 100°
2026-04-28 20:12 66.59329 25.71901 6274 ft 202 kts 147°
2026-04-28 20:12 66.58408 25.72495 6274 ft 207 kts 180°
2026-04-28 20:13 66.56851 25.70238 6282 ft 198 kts 245°
2026-04-28 20:13 66.56593 25.67031 6281 ft 184 kts 279°
2026-04-28 20:13 66.56706 25.63846 6284 ft 183 kts 283°
2026-04-28 20:13 66.56841 25.60644 6288 ft 185 kts 282°
2026-04-28 20:14 66.56960 25.57427 6284 ft 185 kts 282°
2026-04-28 20:14 66.57073 25.54196 6288 ft 186 kts 281°
2026-04-28 20:14 66.57149 25.52002 6285 ft 187 kts 281°
2026-04-28 20:14 66.57300 25.47698 6291 ft 187 kts 281°
2026-04-28 20:15 66.57417 25.44456 6297 ft 185 kts 284°
2026-04-28 20:15 66.57664 25.42443 6297 ft 175 kts 307°
2026-04-28 20:15 66.58549 25.40539 6297 ft 166 kts 341°
2026-04-28 20:15 66.59671 25.40321 6301 ft 164 kts 13°
2026-04-28 20:16 66.60628 25.41774 6301 ft 168 kts 45°
2026-04-28 20:16 66.61081 25.44555 6296 ft 179 kts 80°
2026-04-28 20:16 66.61011 25.47672 6298 ft 182 kts 89°
2026-04-28 20:16 66.60882 25.50847 6291 ft 182 kts 89°
2026-04-28 20:17 66.60763 25.54016 6289 ft 182 kts 88°
2026-04-28 20:17 66.60651 25.57198 6286 ft 183 kts 88°
2026-04-28 20:17 66.60539 25.60386 6288 ft 183 kts 88°
2026-04-28 20:17 66.60426 25.63565 6280 ft 182 kts 88°
2026-04-28 20:18 66.60312 25.66735 6284 ft 182 kts 88°
2026-04-28 20:18 66.60087 25.69869 6282 ft 188 kts 108°
2026-04-28 20:18 66.59122 25.72155 6280 ft 201 kts 154°
2026-04-28 20:18 66.57744 25.72164 6280 ft 203 kts 204°
2026-04-28 20:19 66.56763 25.69824 6285 ft 194 kts 251°
2026-04-28 20:19 66.56603 25.66627 6282 ft 182 kts 280°
2026-04-28 20:19 66.56724 25.63466 6284 ft 182 kts 283°
2026-04-28 20:19 66.56853 25.60334 6282 ft 183 kts 282°
2026-04-28 20:20 66.56970 25.57142 6282 ft 183 kts 282°
2026-04-28 20:20 66.57082 25.53942 6288 ft 184 kts 282°
2026-04-28 20:20 66.56987 25.50709 6289 ft 191 kts 260°
2026-04-28 20:20 66.56368 25.47699 6294 ft 198 kts 236°
2026-04-28 20:21 66.55308 25.45443 6300 ft 202 kts 213°
2026-04-28 20:21 66.54075 25.43743 6296 ft 202 kts 212°
2026-04-28 20:21 66.53209 25.41197 6294 ft 189 kts 257°
2026-04-28 20:21 66.52641 25.38239 6299 ft 191 kts 240°
2026-04-28 20:22 66.51860 25.35514 6301 ft 193 kts 239°
2026-04-28 20:22 66.51116 25.32720 6309 ft 193 kts 243°
2026-04-28 20:22 66.50416 25.29846 6305 ft 194 kts 244°
2026-04-28 20:22 66.49719 25.26957 6312 ft 194 kts 244°
2026-04-28 20:23 66.49012 25.24062 6320 ft 195 kts 244°
2026-04-28 20:23 66.48302 25.21167 6320 ft 195 kts 244°
2026-04-28 20:23 66.47590 25.18265 6325 ft 196 kts 244°
2026-04-28 20:23 66.46874 25.15352 6326 ft 196 kts 244°
2026-04-28 20:24 66.46157 25.12436 6328 ft 197 kts 244°
2026-04-28 20:24 66.45440 25.09525 6324 ft 197 kts 244°
2026-04-28 20:24 66.44723 25.06617 6328 ft 197 kts 243°
2026-04-28 20:24 66.44003 25.03703 6328 ft 197 kts 244°
2026-04-28 20:25 66.43284 25.00795 6336 ft 196 kts 243°
2026-04-28 20:25 66.42566 24.97898 6337 ft 196 kts 243°
2026-04-28 20:25 66.41849 24.95005 6335 ft 196 kts 243°
2026-04-28 20:25 66.41133 24.92120 6335 ft 196 kts 244°
2026-04-28 20:26 66.40416 24.89237 6333 ft 196 kts 243°
2026-04-28 20:26 66.39698 24.86351 6330 ft 196 kts 243°
2026-04-28 20:26 66.38978 24.83463 6333 ft 196 kts 243°